Regional Weather Roundup
Issued by NWS Albany, NY

Home | Current Version | Previous Version | Graphics & Text | Print | Product List | Glossary Off
Versions: 1 2 3 4 5 6 7 8 9 10 11 12 13 14 15 16 17 18 19 20 21 22 23 24 25 26 27 28 29 30 31 32 33 34 35 36 37 38 39 40 41 42 43 44 45 46 47 48 49 50

000
ASUS41 KALY 290610
RWRALY

NEW YORK STATE HOURLY WEATHER ROUNDUP
NATIONAL WEATHER SERVICE ALBANY NY
200 AM EDT SUN MAR 29 2015

NOTE: "FAIR" INDICATES FEW OR NO CLOUDS BELOW 12,000 FEET WITH NO
SIGNIFICANT WEATHER AND/OR NO OBSTRUCTIONS TO VISIBILITY.

NYZ032-033-038>043-046>054-057>066-NYZ062>081-290700-
EAST


CITY           SKY/WX    TMP DP  RH WIND       PRES   REMARKS
ALBANY         FAIR      20   4  50 NW8       30.16S WCI  10
GLENS FALLS    CLEAR     22   3  44 NW8       30.14S WCI  12
POUGHKEEPSIE   CLOUDY    26   6  42 N9        30.14R WCI  17
NEWBURGH       MOCLDY    25   9  50 N9        30.13S WCI  15
MONTGOMERY     CLOUDY    24   3  40 NW8       30.13R WCI  15
WHITE PLAINS   MOCLDY    24  15  68 NW10      30.09S WCI  14
ISLIP          LGT SNOW  26  20  77 NW16      30.08R WCI  14
NEW YORK CITY  CLOUDY    27  15  61 N13G22    30.14R WCI  16
CENTRAL PARK   CLOUDY    26  12  55 VRB6      30.15S WCI  19
$$

NYZ005>009-017-018-044>046-055-056-290700-
CENTRAL


CITY           SKY/WX    TMP DP  RH WIND       PRES   REMARKS
FULTON         CLEAR     13   7  77 CALM      30.20S
SYRACUSE       CLEAR     18  10  71 SW3       30.20S
ROME           CLEAR     11   4  73 CALM      30.21S
ELMIRA         CLEAR     13   8  81 CALM      30.21R
BINGHAMTON     CLEAR     14   4  64 NW3       30.11S
MONTICELLO     CLEAR     16   3  57 NW7       30.10S WCI   6
$$

NYZ026>034-041>043-290700-
NORTH


CITY           SKY/WX    TMP DP  RH WIND       PRES   REMARKS
WATERTOWN      CLEAR     15   7  70 CALM      30.19S
FORT DRUM      NOT AVBL
MASSENA        CLEAR     16   4  59 SW3       30.17S
SARANAC LAKE   CLEAR     -5  -9  83 CALM      30.05S
PLATTSBURGH    CLEAR     21   3  45 VRB3      30.12R
$$

NYZ001>004-010>016-019>021-290700-
WEST


CITY           SKY/WX    TMP DP  RH WIND       PRES   REMARKS
NIAGARA FALLS  CLEAR     18  11  74 W6        30.26S WCI  10
BUFFALO        CLEAR     18  12  77 SW5       30.26R WCI  11
DUNKIRK        CLEAR     18  12  77 SW6       30.29R WCI  10
JAMESTOWN      CLEAR     16   9  73 W5        30.20S WCI   9
WELLSVILLE     CLEAR     13   5  70 W10       30.16R WCI   0
ROCHESTER      CLEAR     20  11  68 W7        30.24R WCI  11
PENN YAN       CLEAR     21   9  59 VRB7      30.20R WCI  12
$$

             KEY
       WCI = WIND CHILL INDEX
       VSB = VISIBILITY
       HX  = HEAT INDEX
$$



USA.gov is the U.S. government's official web portal to all federal, state and local government web resources and services.